Prins Christian Sund

KL  EN  DA
ASIAQ
Weather Now GREENLAND SURVEY
Updated [WGT/WGST] Temperature [°C] Wind [m/s] Air pressure [hPa] Relative humidity [%] Precipitation [mm]
Present Wind chill Speed Max
17.04 23:00n/an/a5,8 ⇗9,9999n/an/a
17.04 22:00n/an/a6,3 ⇒14,7999n/an/a
17.04 21:00n/an/a9,6 ⇒15,1998n/an/a
17.04 20:00n/an/a7,1 ⇒13,6998n/an/a
17.04 19:00n/an/a8,5 ⇒14,9997n/an/a
17.04 18:00n/an/a8,5 ⇒14,0996n/an/a
17.04 17:00n/an/a7,5 ⇒15,7996n/an/a
17.04 16:00n/an/a9,4 ⇒16,1995n/an/a
17.04 15:00n/an/a12,3 ⇒16,6994n/an/a
17.04 14:00n/an/a9,2 ⇒18,7994n/an/a
17.04 13:00n/an/a14,1 ⇒18,3993n/an/a
17.04 12:00n/an/a13,1 ⇒17,8992n/an/a
17.04 11:00n/an/a11,3 ⇒20,8992n/an/a
17.04 10:00n/an/a13,5 ⇒21,2990n/an/a
17.04 09:00n/an/a13,4 ⇒25,5990n/an/a
17.04 08:00n/an/a16,4 ⇒25,0988n/an/a
17.04 07:00n/an/a11,2 ⇒19,2988n/an/a
17.04 06:00n/an/a8,7 ⇒17,6988n/an/a
17.04 05:00n/an/a10,9 ⇒18,5987n/an/a
17.04 04:00n/an/a6,5 ⇒17,2986n/an/a
17.04 03:00n/an/a9,5 ⇒17,7986n/an/a
17.04 02:00n/an/a6,5 ⇒22,5985n/an/a
17.04 01:00n/an/a15,9 ⇒25,2983n/an/a
17.04 00:00n/an/a11,6 ⇒24,6983n/an/a
16.04 23:00n/an/a8,2 ⇒18,5984n/an/a
Position: (60.05527777,-43.16527777)

[Back]